Tracking 35237 objects as of 4-Sep-2026
HD Live streaming from Space Station
objects crossing your sky now

STARLINK-37960

Track STARLINK-37960 now!
10-day predictions
STARLINK-37960 is classified as:


NORAD ID: 100487
Int'l Code: 2026-196Q
Launch date: August 25, 2026
Source: United States (US)
Launch site: AIR FORCE EASTERN TEST RANGE (AFETR)
Your satellite tracking list
Your tracking list is empty




NASA's NSSDC Master Catalog

Two Line Element Set (TLE):
1 A0487U 26196Q   26246.66950143 -.00903004  26269-3 -22410-2 0  9994
2 A0487  53.1599 326.0649 0000419  91.3587 268.7490 15.95186723  2690
Source of the keplerian elements: AFSPC